Regional Weather Roundup
Issued by NWS

Home | Current Version | Previous Version | Text Only | Print | Product List | Glossary Off
Versions: 1 2 3 4 5 6 7 8 9 10 11 12 13 14 15 16 17 18 19 20 21 22 23 24 25 26 27 28 29 30 31 32 33 34 35 36 37 38 39 40 41 42 43 44 45 46 47 48 49 50

634
ASUS43 KLSX 311207
RWRMO

WEATHER SUMMARY FOR MISSOURI
NATIONAL WEATHER SERVICE SPRINGFIELD MO
700 AM CDT WED AUG 31 2016

NOTE: "FAIR" INDICATES FEW OR NO CLOUDS BELOW 12,000 FEET WITH NO
       SIGNIFICANT WEATHER AND/OR OBSTRUCTIONS TO VISIBILITY.
       CURRENT SKY AND/OR WEATHER CONDITIONS ARE NOT AVAILABLE FOR
       CHILLICOTHE AND FARMINGTON.

MOZ001>031-035>038-043-044-053-054-311300-
...NORTHERN AND WESTERN MISSOURI...

CITY           SKY/WX    TMP DP  RH WIND       PRES   REMARKS
KANSAS CTY INT CLOUDY    70  67  90 N3        30.11S
6HR MIN TEMP:  69; 6HR MAX TEMP:  73; 6HR PCP:  0.77;

KANSAS C DTWN  CLOUDY    72  69  90 CALM      30.10S
6HR MIN TEMP:  71; 6HR MAX TEMP:  75; 6HR PCP:  0.14;

LEE`S SUMMIT   CLOUDY    72  70  93 N6        30.11S
6HR MIN TEMP:  72; 6HR MAX TEMP:  73; 6HR PCP:  0.04;

ST JOSEPH      MOCLDY    72  70  93 N6        30.12S
6HR MIN TEMP:  71; 6HR MAX TEMP:  73; 6HR PCP:  0.09;

CHILLICOTHE      N/A     73  71  93 VRB3      30.12R
6HR MIN TEMP:  73; 6HR MAX TEMP:  75; 6HR PCP:  0.03;

KIRKSVILLE     CLOUDY    71  69  93 N6        30.12R
6HR MIN TEMP:  71; 6HR MAX TEMP:  72;


$$
MOZ066>068-077>081-088>096-101>105-311300-
...SOUTHWEST MISSOURI...

CITY           SKY/WX    TMP DP  RH WIND       PRES   REMARKS
SPRINGFIELD    MOCLDY    72  68  87 N5        30.09S
6HR MIN TEMP:  71; 6HR MAX TEMP:  74;

JOPLIN         CLOUDY    71  70  96 CALM      30.08S
6HR MIN TEMP:  71; 6HR MAX TEMP:  73; 6HR PCP:  0.04;

BRANSON        MOCLDY    68  68 100 CALM      30.10S FOG

$$
MOZ032>034-039>042-045>050-055>058-069>072-311300-
...CENTRAL MISSOURI...

CITY           SKY/WX    TMP DP  RH WIND       PRES   REMARKS
COLUMBIA       PTCLDY    71  70  96 N5        30.09F FOG
6HR MIN TEMP:  68; 6HR MAX TEMP:  71;

JEFFERSON CITY FOG       71  71 100 CALM      30.08S VSB 1/2
6HR MIN TEMP:  70; 6HR MAX TEMP:  71;

ROLLA          FOG       69  69 100 CALM      30.09R VSB 3/4
6HR MIN TEMP:  66; 6HR MAX TEMP:  70;

SEDALIA        CLOUDY    71  69  93 NW5       30.11S FOG
6HR MIN TEMP:  71; 6HR MAX TEMP:  73; 6HR PCP: TRACE;

WHITEMAN AFB   CLOUDY    71  71 100 NW5       30.09R
OSAGE BEACH    CLOUDY    72  71  97 CALM      30.09S FOG

$$
MOZ051-052-059>065-311300-
...EAST CENTRAL MISSOURI...

CITY           SKY/WX    TMP DP  RH WIND       PRES   REMARKS
ST LOUIS INTL  MOCLDY    73  69  87 W3        30.07S FOG
6HR MIN TEMP:  71; 6HR MAX TEMP:  73;

SPIRIT OF STL  CLOUDY    70  70 100 CALM      30.06S
6HR MIN TEMP:  69; 6HR MAX TEMP:  71;

ST CHARLES     FOG       70  70 100 W5        30.06R VSB 1/4
6HR MIN TEMP:  70; 6HR MAX TEMP:  71;


$$
MOZ072>076-082>087-097>100-106>115-311300-
...SOUTH CENTRAL AND SOUTHEAST MISSOURI...

CITY           SKY/WX    TMP DP  RH WIND       PRES   REMARKS
CAPE GIRARDEAU PTCLDY    71  69  93 NW3       30.03S FOG
6HR MIN TEMP:  68; 6HR MAX TEMP:  71;

FARMINGTON     FOG       68  66  94 CALM      30.09R VSB 3/4
POPLAR BLUFF   CLEAR     71  69  93 N3        30.03R
6HR MIN TEMP:  71; 6HR MAX TEMP:  73;

WEST PLAINS    CLEAR     68  65  90 NE3       30.10S
6HR MIN TEMP:  67; 6HR MAX TEMP:  72;


$$



USA.gov is the U.S. government's official web portal to all federal, state and local government web resources and services.